sat.trackr.live / text

‹ back to catalog

STARLINK-35467

NORAD 66343 · 2025-253AA

PAYLOAD ACTIVE UNKNOWN

§ Identity

Operator
Country
US
Launch date
2025-11-06
Launch site
AFETR
Launch vehicle
Mass (kg)
RCS (m²)

Purposes: comms

External: N2YO · Heavens-Above · Gunter

§ Orbital elements

Epoch: 2026-05-25T00:12:00.988128Z

Period
94.27 min
Inclination
42.9976°
Eccentricity
0.0001343
Mean motion
15.27595752 rev/d
Perigee alt
482.1 km
Apogee alt
483.9 km
Semi-major
6,861.1 km
B*
7.1438e-4
RAAN
141.7382°
Arg perigee
270.3401°
Mean anomaly
89.7297°
Rev number
3,191

§ Raw data

STARLINK-354671 66343U 25253AA  26145.00834477  .00019457  00000+0  71438-3 0  99912 66343  42.9976 141.7382 0001343 270.3401  89.7297 15.27595752 31919

JSON: /api/v1/satellites/66343 · /tle

For live sub-satellite position, see the globe view (requires WebGL).

§ Visibility from observer

Set your observer location to see the next 7 days of passes ≥ 10°. The values pass through the URL so the page stays shareable.

No JS? Fill the form by hand. The geolocation button needs JavaScript.